Meteo orario Alkhan-Kala

Oggi, 20 Ottobre, Martedi

Tempo Temperatura Precipitazioni Vento Pressione Umidità
00:00 +18°C° 0 mm 3 m/s 749 mm Hg 50%
01:00 +18°C° 0 mm 3 m/s 749 mm Hg 59%
02:00 +18°C° 0 mm 3 m/s 750 mm Hg 69%
03:00 +17°C° 0 mm 2 m/s 750 mm Hg 79%
04:00 +17°C° 0.2 mm 3 m/s 751 mm Hg 77%
05:00 +17°C° 0.2 mm 3 m/s 751 mm Hg 75%
06:00 +16°C° 0.2 mm 3 m/s 752 mm Hg 73%
07:00 +16°C° 0 mm 3 m/s 752 mm Hg 70%
08:00 +17°C° 0 mm 3 m/s 752 mm Hg 67%
09:00 +17°C° 0 mm 2 m/s 753 mm Hg 64%
10:00 +17°C° 0 mm 2 m/s 752 mm Hg 62%
11:00 +18°C° 0 mm 2 m/s 752 mm Hg 59%
12:00 +18°C° 0 mm 2 m/s 752 mm Hg 57%
13:00 +18°C° 0 mm 2 m/s 752 mm Hg 54%
14:00 +19°C° 0 mm 2 m/s 752 mm Hg 52%
15:00 +19°C° 0 mm 2 m/s 752 mm Hg 50%
16:00 +18°C° 0 mm 2 m/s 752 mm Hg 52%
17:00 +17°C° 0 mm 2 m/s 752 mm Hg 53%
18:00 +17°C° 0 mm 2 m/s 752 mm Hg 55%
19:00 +16°C° 1 mm 2 m/s 752 mm Hg 64%
20:00 +15°C° 1 mm 1 m/s 753 mm Hg 73%
21:00 +14°C° 1 mm 1 m/s 753 mm Hg 82%
22:00 +14°C° 0.5 mm 1 m/s 753 mm Hg 83%
23:00 +14°C° 0.5 mm 1 m/s 753 mm Hg 85%

Domani, 21 Ottobre, Mercoledi

Tempo Temperatura Precipitazioni Vento Pressione Umidità
00:00 +14°C° 0.5 mm 1 m/s 753 mm Hg 86%
01:00 +14°C° 0.4 mm 1 m/s 753 mm Hg 86%
02:00 +14°C° 0.4 mm 1 m/s 754 mm Hg 86%
03:00 +14°C° 0.4 mm 1 m/s 754 mm Hg 86%
04:00 +14°C° 0.1 mm 1 m/s 754 mm Hg 86%
05:00 +14°C° 0.1 mm 1 m/s 754 mm Hg 86%
06:00 +14°C° 0.1 mm 1 m/s 754 mm Hg 85%
07:00 +14°C° 0 mm 1 m/s 755 mm Hg 81%
08:00 +14°C° 0 mm 1 m/s 755 mm Hg 76%
09:00 +14°C° 0 mm 2 m/s 756 mm Hg 72%
10:00 +15°C° 0 mm 2 m/s 756 mm Hg 67%
11:00 +16°C° 0 mm 1 m/s 755 mm Hg 62%
12:00 +16°C° 0 mm 1 m/s 755 mm Hg 57%
13:00 +18°C° 0 mm 1 m/s 755 mm Hg 55%
14:00 +18°C° 0 mm 1 m/s 755 mm Hg 54%
15:00 +16°C° 0 mm 0 m/s 755 mm Hg 52%
16:00 +16°C° 0 mm 1 m/s 755 mm Hg 56%
17:00 +15°C° 0 mm 1 m/s 755 mm Hg 61%
18:00 +14°C° 0 mm 1 m/s 755 mm Hg 65%
19:00 +14°C° 0 mm 1 m/s 755 mm Hg 67%
20:00 +13°C° 0 mm 1 m/s 755 mm Hg 70%
21:00 +12°C° 0 mm 0 m/s 755 mm Hg 73%
22:00 +11°C° 0 mm 0 m/s 755 mm Hg 74%
23:00 +11°C° 0 mm 0 m/s 754 mm Hg 75%

Dopodomani, 22 Ottobre, Giovedi

Tempo Temperatura Precipitazioni Vento Pressione Umidità
00:00 +12°C° 0 mm 1 m/s 754 mm Hg 76%
01:00 +12°C° 0 mm 1 m/s 754 mm Hg 76%
02:00 +11°C° 0 mm 1 m/s 754 mm Hg 77%
03:00 +11°C° 0 mm 1 m/s 753 mm Hg 77%
04:00 +11°C° 0 mm 1 m/s 753 mm Hg 77%
05:00 +11°C° 0 mm 1 m/s 753 mm Hg 77%
06:00 +10°C° 0 mm 0 m/s 753 mm Hg 77%
07:00 +12°C° 0 mm 1 m/s 753 mm Hg 73%
08:00 +13°C° 0 mm 1 m/s 753 mm Hg 68%
09:00 +15°C° 0 mm 1 m/s 753 mm Hg 63%
10:00 +16°C° 0 mm 1 m/s 753 mm Hg 57%
11:00 +19°C° 0 mm 1 m/s 752 mm Hg 50%
12:00 +20°C° 0 mm 2 m/s 752 mm Hg 43%
13:00 +20°C° 0 mm 2 m/s 752 mm Hg 42%
14:00 +21°C° 0 mm 1 m/s 752 mm Hg 41%
15:00 +21°C° 0 mm 1 m/s 752 mm Hg 40%
16:00 +20°C° 0 mm 1 m/s 752 mm Hg 45%
17:00 +18°C° 0 mm 1 m/s 752 mm Hg 49%
18:00 +16°C° 0 mm 1 m/s 752 mm Hg 54%
19:00 +15°C° 0 mm 1 m/s 752 mm Hg 56%
20:00 +15°C° 0 mm 1 m/s 752 mm Hg 58%
21:00 +14°C° 0 mm 1 m/s 752 mm Hg 61%
22:00 +14°C° 0 mm 1 m/s 752 mm Hg 62%
23:00 +12°C° 0 mm 0 m/s 752 mm Hg 64%

23 Ottobre, Venerdi

Tempo Temperatura Precipitazioni Vento Pressione Umidità
00:00 +12°C° 0 mm 0 m/s 752 mm Hg 66%
01:00 +12°C° 0 mm 0 m/s 752 mm Hg 65%
02:00 +13°C° 0 mm 1 m/s 752 mm Hg 65%
03:00 +12°C° 0 mm 1 m/s 752 mm Hg 65%
04:00 +12°C° 0 mm 1 m/s 752 mm Hg 65%
05:00 +12°C° 0 mm 1 m/s 753 mm Hg 64%
06:00 +12°C° 0 mm 1 m/s 753 mm Hg 64%
07:00 +13°C° 0 mm 1 m/s 753 mm Hg 58%
08:00 +15°C° 0 mm 1 m/s 753 mm Hg 52%
09:00 +18°C° 0 mm 1 m/s 753 mm Hg 46%
10:00 +19°C° 0 mm 1 m/s 753 mm Hg 43%
11:00 +20°C° 0 mm 1 m/s 753 mm Hg 39%
12:00 +21°C° 0 mm 1 m/s 753 mm Hg 35%
13:00 +22°C° 0 mm 1 m/s 753 mm Hg 34%
14:00 +22°C° 0 mm 1 m/s 753 mm Hg 34%
15:00 +22°C° 0 mm 1 m/s 752 mm Hg 33%
16:00 +21°C° 0 mm 1 m/s 752 mm Hg 37%
17:00 +19°C° 0 mm 1 m/s 753 mm Hg 41%
18:00 +16°C° 0 mm 1 m/s 753 mm Hg 44%
19:00 +16°C° 0 mm 1 m/s 753 mm Hg 46%
20:00 +15°C° 0 mm 1 m/s 753 mm Hg 48%
21:00 +15°C° 0 mm 1 m/s 753 mm Hg 50%
22:00 +14°C° 0 mm 1 m/s 753 mm Hg 51%
23:00 +14°C° 0 mm 1 m/s 752 mm Hg 52%

24 Ottobre, Sabato

Tempo Temperatura Precipitazioni Vento Pressione Umidità
00:00 +14°C° 0 mm 1 m/s 752 mm Hg 53%
01:00 +14°C° 0 mm 1 m/s 752 mm Hg 55%
02:00 +13°C° 0 mm 1 m/s 751 mm Hg 56%
03:00 +12°C° 0 mm 0 m/s 751 mm Hg 57%
04:00 +12°C° 0 mm 0 m/s 751 mm Hg 58%
05:00 +12°C° 0 mm 0 m/s 750 mm Hg 59%
06:00 +12°C° 0 mm 0 m/s 750 mm Hg 60%
07:00 +14°C° 0 mm 0 m/s 750 mm Hg 55%
08:00 +15°C° 0 mm 0 m/s 750 mm Hg 49%
09:00 +17°C° 0 mm 0 m/s 750 mm Hg 43%
10:00 +21°C° 0 mm 1 m/s 749 mm Hg 39%
11:00 +23°C° 0 mm 1 m/s 749 mm Hg 34%
12:00 +24°C° 0 mm 1 m/s 748 mm Hg 30%
13:00 +25°C° 0 mm 1 m/s 748 mm Hg 29%
14:00 +25°C° 0 mm 1 m/s 748 mm Hg 29%
15:00 +25°C° 0 mm 1 m/s 748 mm Hg 28%
16:00 +24°C° 0 mm 1 m/s 748 mm Hg 33%
17:00 +22°C° 0 mm 1 m/s 748 mm Hg 38%
18:00 +20°C° 0 mm 1 m/s 748 mm Hg 43%
19:00 +20°C° 0 mm 1 m/s 748 mm Hg 44%
20:00 +19°C° 0 mm 1 m/s 748 mm Hg 46%
21:00 +19°C° 0 mm 1 m/s 748 mm Hg 47%
22:00 +18°C° 0 mm 1 m/s 747 mm Hg 47%
23:00 +18°C° 0 mm 1 m/s 747 mm Hg 47%

25 Ottobre, Domenica

Tempo Temperatura Precipitazioni Vento Pressione Umidità
00:00 +18°C° 0 mm 1 m/s 747 mm Hg 47%
01:00 +16°C° 0 mm 1 m/s 747 mm Hg 47%
02:00 +16°C° 0 mm 1 m/s 746 mm Hg 48%
03:00 +16°C° 0 mm 1 m/s 746 mm Hg 48%
04:00 +15°C° 0 mm 1 m/s 746 mm Hg 48%
05:00 +15°C° 0 mm 1 m/s 746 mm Hg 49%
06:00 +15°C° 0 mm 1 m/s 746 mm Hg 49%
07:00 +18°C° 0 mm 1 m/s 746 mm Hg 45%
08:00 +20°C° 0 mm 1 m/s 746 mm Hg 41%
09:00 +21°C° 0 mm 1 m/s 746 mm Hg 36%
10:00 +23°C° 0 mm 1 m/s 746 mm Hg 34%
11:00 +24°C° 0 mm 1 m/s 746 mm Hg 31%
12:00 +25°C° 0 mm 2 m/s 745 mm Hg 29%
13:00 +26°C° 0 mm 2 m/s 745 mm Hg 28%
14:00 +26°C° 0 mm 2 m/s 745 mm Hg 27%
15:00 +26°C° 0 mm 2 m/s 745 mm Hg 27%
16:00 +24°C° 0 mm 1 m/s 745 mm Hg 30%
17:00 +22°C° 0 mm 1 m/s 746 mm Hg 33%
18:00 +20°C° 0 mm 1 m/s 746 mm Hg 36%
19:00 +20°C° 0 mm 1 m/s 746 mm Hg 37%
20:00 +19°C° 0 mm 1 m/s 746 mm Hg 39%
21:00 +19°C° 0 mm 1 m/s 747 mm Hg 40%
22:00 +17°C° 0 mm 2 m/s 747 mm Hg 41%
23:00 +17°C° 0 mm 2 m/s 747 mm Hg 43%

26 Ottobre, Lunedi

Tempo Temperatura Precipitazioni Vento Pressione Umidità
00:00 +16°C° 0 mm 2 m/s 747 mm Hg 44%
01:00 +16°C° 0 mm 2 m/s 747 mm Hg 49%
02:00 +16°C° 0 mm 2 m/s 748 mm Hg 54%
03:00 +15°C° 0 mm 2 m/s 748 mm Hg 59%
04:00 +15°C° 0 mm 2 m/s 748 mm Hg 64%
05:00 +15°C° 0 mm 2 m/s 748 mm Hg 69%
06:00 +15°C° 0 mm 1 m/s 748 mm Hg 74%
07:00 +15°C° 0.1 mm 1 m/s 748 mm Hg 75%
08:00 +15°C° 0.1 mm 1 m/s 749 mm Hg 76%
09:00 +15°C° 0.1 mm 1 m/s 749 mm Hg 78%
10:00 +15°C° 0.3 mm 1 m/s 749 mm Hg 80%
11:00 +14°C° 0.3 mm 2 m/s 749 mm Hg 82%
12:00 +14°C° 0.3 mm 2 m/s 749 mm Hg 84%
13:00 +14°C° 0.1 mm 2 m/s 749 mm Hg 82%
14:00 +14°C° 0.1 mm 2 m/s 749 mm Hg 80%
15:00 +14°C° 0.1 mm 1 m/s 749 mm Hg 77%
16:00 +13°C° 0 mm 1 m/s 749 mm Hg 76%
17:00 +13°C° 0 mm 1 m/s 749 mm Hg 75%
18:00 +13°C° 0 mm 1 m/s 749 mm Hg 74%
19:00 +13°C° 0 mm 1 m/s 750 mm Hg 73%
20:00 +13°C° 0 mm 1 m/s 750 mm Hg 72%
21:00 +13°C° 0 mm 1 m/s 750 mm Hg 71%
22:00 +13°C° 0 mm 1 m/s 750 mm Hg 70%
23:00 +13°C° 0 mm 1 m/s 750 mm Hg 68%
Mostrare altro

Abbiamo bisogno del tuo consenso

Meteoprog e i nostri fornitori di servizi possono memorizzare e accedere a dati personali come cookie, identificatori di dispositivi o altre tecnologie simili sul tuo dispositivo e possono elaborare tali dati per personalizzare i contenuti e gli annunci, nonché fornire funzionalità dei social media e analizzarne il traffico.

  • Archiviare e/o accedere alle informazioni sul tuo dispositivo

    Cookie, identificatori di dispositivi o altre informazioni possono essere memorizzati o resi accessibili sul tuo dispositivo per le finalità sopra indicate.

  • Annunci e contenuti personalizzati, misurazione di annunci e contenuti, approfondimenti sul pubblico e sviluppo di prodotti

    Gli annunci e i contenuti possono essere personalizzati in base a un profilo. È possibile aggiungere più dati per personalizzare meglio annunci e contenuti. È possibile misurare il rendimento degli annunci e dei contenuti. È possibile ricavare informazioni sul pubblico che ha visto gli annunci e i contenuti. Tali dati possono essere utilizzati per sviluppare o migliorare l'esperienza, i sistemi e il software dell'utente.

Cliccando su “Accetto”, acconsenti all'uso di cookie, identificatori di dispositivo, web beacon o altre tecnologie simili. Puoi modificare le impostazioni nel browser del tuo dispositivo.

Per determinati scopi, è possibile fare affidamento su interessi legali, piuttosto che sul consenso. Puoi approfondire questo argomento consultando la nostra Informativa sulla privacy e sui cookie.